User: anonymous   Login
Location: Oronoko Observatory
(41.9167°N, 86.3833°W)
Time: 03:23:44
(UTC-04:00)
Language:

PAYLOAD A - Orbit

View from above orbital plane
View from above orbital plane
View from above satellite
View from above satellite

Ground track
Ground track

The orbit data is extracted from the following two-line orbital elements,

1 27840U 03031A   16183.54813075 -.00000010  00000-0  98860-5 0  9998
2 27840  98.1958 190.3982 0099591  96.0885 265.1662 14.38857977682894
Epoch (UTC): 01 July 2016 13:09:18
Eccentricity: 0.0099591
inclination: 98.1958°
perigee height: 691 km
apogee height: 833 km
right ascension of ascending node: 190.3982°
argument of perigee: 96.0885°
revolutions per day: 14.38857977
mean anomaly at epoch: 265.1662°
orbit number at epoch: 68289

The dashed part of the orbit path shows where the satellite is in the earth's shadow,  

DLR